カタログに戻る

COSMOS 2618

運用中軍事SSO
NORAD 68829·PAYLOAD·🇷🇺 Russia

打ち上げ Apr 23, 2026 から Plesetsk Cosmodrome

Loading…

次のパス (今後24時間)

TLE

最新Source: Space-Track

元期: Sep 14, 2026, 12:52 UTC

1 68829U 26090D   26257.53640052  .00035222  22503-5  14272-3 0  9997
2 68829  96.6364 172.7046 0014898  60.1004 300.1746 15.86368454 22822

AllMySatでCOSMOS 2618をリアルタイム追跡

Download on the App Store